When you browse on this site, cookies collect data to enhance your experience and personalize the content and advertising you see.
Visit our Privacy Policy to learn more. By continuing to use the site, you agree to this use of cookies and data.
  • In Portugal
  • List of Countries
  • For 7 days
  • Water Temperature
  • Satellite Maps
  • Weather Map
  • Weather Widgets
  • user-avatar
    Login

    Hourly Weather Tottori

    Today, 19 January, Saturday

    Time Temperature Precipitation Wind Pressure Humidity
    00:00 +1°C° 0 mm 1 mps 735 mmHg 86%
    01:00 +1°C° 0 mm 1 mps 735 mmHg 86%
    02:00 +1°C° 0 mm 1 mps 735 mmHg 86%
    03:00 +2°C° 0 mm 1 mps 735 mmHg 88%
    04:00 +2°C° 0 mm 1 mps 735 mmHg 88%
    05:00 +2°C° 0 mm 1 mps 735 mmHg 88%
    06:00 +2°C° 0 mm 1 mps 735 mmHg 87%
    07:00 +3°C° 0 mm 1 mps 735 mmHg 82%
    08:00 +5°C° 0 mm 1 mps 735 mmHg 77%
    09:00 +6°C° 0 mm 1 mps 736 mmHg 71%
    10:00 +6°C° 0 mm 2 mps 735 mmHg 65%
    11:00 +8°C° 0 mm 2 mps 735 mmHg 58%
    12:00 +10°C° 0 mm 2 mps 735 mmHg 52%
    13:00 +10°C° 0 mm 2 mps 735 mmHg 52%
    14:00 +10°C° 0 mm 2 mps 734 mmHg 52%
    15:00 +10°C° 0 mm 2 mps 734 mmHg 53%
    16:00 +9°C° 0 mm 1 mps 733 mmHg 59%
    17:00 +8°C° 0 mm 1 mps 733 mmHg 66%
    18:00 +7°C° 0 mm 1 mps 733 mmHg 72%
    19:00 +6°C° 0 mm 1 mps 733 mmHg 74%
    20:00 +6°C° 0 mm 1 mps 732 mmHg 75%
    21:00 +5°C° 0 mm 1 mps 731 mmHg 78%
    22:00 +5°C° 0 mm 1 mps 731 mmHg 79%
    23:00 +5°C° 0 mm 1 mps 731 mmHg 79%

    Tomorrow, 20 January, Sunday

    Time Temperature Precipitation Wind Pressure Humidity
    00:00 +4°C° 0 mm 2 mps 730 mmHg 80%
    01:00 +4°C° 0 mm 2 mps 730 mmHg 80%
    02:00 +5°C° 0 mm 2 mps 729 mmHg 81%
    03:00 +5°C° 0 mm 2 mps 728 mmHg 82%
    04:00 +5°C° 1.2 mm 2 mps 728 mmHg 86%
    05:00 +5°C° 1.2 mm 2 mps 727 mmHg 89%
    06:00 +6°C° 1.2 mm 2 mps 726 mmHg 93%
    07:00 +6°C° 1.2 mm 2 mps 726 mmHg 94%
    08:00 +6°C° 1.2 mm 2 mps 726 mmHg 95%
    09:00 +6°C° 1.2 mm 2 mps 726 mmHg 95%
    10:00 +7°C° 0.2 mm 3 mps 726 mmHg 90%
    11:00 +6°C° 0.2 mm 4 mps 727 mmHg 85%
    12:00 +7°C° 0.2 mm 5 mps 727 mmHg 79%
    13:00 +7°C° 0.1 mm 5 mps 727 mmHg 77%
    14:00 +7°C° 0.1 mm 5 mps 727 mmHg 76%
    15:00 +5°C° 0.1 mm 6 mps 727 mmHg 74%
    16:00 +5°C° 0.1 mm 5 mps 727 mmHg 76%
    17:00 +3°C° 0.1 mm 5 mps 727 mmHg 78%
    18:00 +3°C° 0.1 mm 4 mps 727 mmHg 80%
    19:00 +3°C° 0.1 mm 4 mps 727 mmHg 79%
    20:00 +1°C° 0.1 mm 5 mps 728 mmHg 79%
    21:00 +1°C° 0.1 mm 5 mps 728 mmHg 79%
    22:00 +1°C° 0.3 mm 4 mps 728 mmHg 82%
    23:00 +1°C° 0.3 mm 4 mps 728 mmHg 85%

    Day after tomorrow, 21 January, Monday

    Time Temperature Precipitation Wind Pressure Humidity
    00:00 +1°C° 0.3 mm 3 mps 728 mmHg 88%
    01:00 +1°C° 0.7 mm 3 mps 729 mmHg 88%
    02:00 +1°C° 0.7 mm 3 mps 729 mmHg 89%
    03:00 +1°C° 0.7 mm 3 mps 729 mmHg 89%
    04:00 +2°C° 0.4 mm 2 mps 729 mmHg 89%
    05:00 +2°C° 0.4 mm 2 mps 729 mmHg 90%
    06:00 +3°C° 0.4 mm 1 mps 729 mmHg 90%
    07:00 +3°C° 0.2 mm 1 mps 729 mmHg 88%
    08:00 +4°C° 0.2 mm 1 mps 729 mmHg 86%
    09:00 +4°C° 0.2 mm 1 mps 729 mmHg 84%
    10:00 +3°C° 0.3 mm 2 mps 729 mmHg 82%
    11:00 +3°C° 0.3 mm 3 mps 729 mmHg 79%
    12:00 +3°C° 0.3 mm 4 mps 729 mmHg 77%
    13:00 +4°C° 0.1 mm 4 mps 728 mmHg 74%
    14:00 +3°C° 0.1 mm 5 mps 728 mmHg 71%
    15:00 +3°C° 0.1 mm 5 mps 728 mmHg 68%
    16:00 +2°C° 0 mm 5 mps 728 mmHg 73%
    17:00 +1°C° 0 mm 4 mps 728 mmHg 78%
    18:00 +1°C° 0 mm 3 mps 728 mmHg 83%
    19:00 +1°C° 0 mm 3 mps 728 mmHg 84%
    20:00 +1°C° 0 mm 3 mps 728 mmHg 85%
    21:00 0°C° 0 mm 3 mps 727 mmHg 86%
    22:00 +1°C° 0.1 mm 3 mps 727 mmHg 86%
    23:00 +1°C° 0.1 mm 3 mps 727 mmHg 86%

    22 January, Tuesday

    Time Temperature Precipitation Wind Pressure Humidity
    00:00 0°C° 0.1 mm 4 mps 727 mmHg 86%
    01:00 0°C° 0.1 mm 4 mps 727 mmHg 86%
    02:00 0°C° 0.1 mm 4 mps 727 mmHg 86%
    03:00 0°C° 0.1 mm 4 mps 727 mmHg 86%
    04:00 0°C° 0 mm 4 mps 727 mmHg 85%
    05:00 0°C° 0 mm 4 mps 727 mmHg 85%
    06:00 -1°C° 0 mm 4 mps 727 mmHg 85%
    07:00 0°C° 0.1 mm 4 mps 728 mmHg 81%
    08:00 +1°C° 0.1 mm 4 mps 728 mmHg 78%
    09:00 +2°C° 0.1 mm 5 mps 729 mmHg 75%
    10:00 +2°C° 0.1 mm 5 mps 729 mmHg 72%
    11:00 +4°C° 0.1 mm 4 mps 729 mmHg 69%
    12:00 +5°C° 0.1 mm 4 mps 729 mmHg 67%
    13:00 +5°C° 0.1 mm 4 mps 729 mmHg 66%
    14:00 +5°C° 0.1 mm 4 mps 728 mmHg 65%
    15:00 +5°C° 0.1 mm 4 mps 728 mmHg 64%
    16:00 +4°C° 0 mm 3 mps 728 mmHg 70%
    17:00 +2°C° 0 mm 3 mps 728 mmHg 75%
    18:00 +2°C° 0 mm 2 mps 728 mmHg 80%
    19:00 +1°C° 0 mm 2 mps 728 mmHg 82%
    20:00 +1°C° 0 mm 2 mps 728 mmHg 84%
    21:00 -1°C° 0 mm 2 mps 728 mmHg 86%
    22:00 -1°C° 0 mm 2 mps 728 mmHg 86%
    23:00 -1°C° 0 mm 2 mps 728 mmHg 86%

    23 January, Wednesday

    Time Temperature Precipitation Wind Pressure Humidity
    00:00 -1°C° 0 mm 2 mps 727 mmHg 86%
    01:00 -1°C° 0 mm 2 mps 727 mmHg 86%
    02:00 -1°C° 0 mm 2 mps 727 mmHg 86%
    03:00 -1°C° 0 mm 2 mps 726 mmHg 86%
    04:00 -1°C° 0 mm 2 mps 726 mmHg 88%
    05:00 +1°C° 0 mm 2 mps 726 mmHg 90%
    06:00 +1°C° 0 mm 2 mps 726 mmHg 91%
    07:00 +1°C° 0 mm 3 mps 726 mmHg 86%
    08:00 +1°C° 0 mm 4 mps 726 mmHg 80%
    09:00 +2°C° 0 mm 5 mps 726 mmHg 74%
    10:00 +3°C° 0.1 mm 6 mps 726 mmHg 73%
    11:00 +3°C° 0.1 mm 6 mps 726 mmHg 71%
    12:00 +4°C° 0.1 mm 7 mps 726 mmHg 69%
    13:00 +3°C° 0.2 mm 7 mps 726 mmHg 70%
    14:00 +3°C° 0.2 mm 7 mps 726 mmHg 71%
    15:00 +1°C° 0.2 mm 8 mps 727 mmHg 73%
    16:00 0°C° 0.5 mm 7 mps 727 mmHg 76%
    17:00 -1°C° 0.5 mm 7 mps 728 mmHg 80%
    18:00 -2°C° 0.5 mm 6 mps 729 mmHg 84%
    19:00 -2°C° 0.2 mm 6 mps 730 mmHg 82%
    20:00 -3°C° 0.2 mm 6 mps 731 mmHg 80%
    21:00 -2°C° 0.2 mm 5 mps 731 mmHg 78%
    22:00 -2°C° 0.2 mm 5 mps 732 mmHg 78%
    23:00 -2°C° 0.2 mm 5 mps 732 mmHg 79%

    24 January, Thursday

    Time Temperature Precipitation Wind Pressure Humidity
    00:00 -2°C° 0.2 mm 5 mps 732 mmHg 79%
    01:00 -2°C° 0.1 mm 5 mps 732 mmHg 79%
    02:00 -4°C° 0.1 mm 5 mps 733 mmHg 80%
    03:00 -4°C° 0.1 mm 5 mps 733 mmHg 80%
    04:00 -4°C° 0.2 mm 5 mps 733 mmHg 80%
    05:00 -2°C° 0.2 mm 4 mps 733 mmHg 80%
    06:00 -2°C° 0.2 mm 4 mps 734 mmHg 80%
    07:00 -2°C° 0.1 mm 4 mps 734 mmHg 79%
    08:00 -1°C° 0.1 mm 4 mps 735 mmHg 77%
    09:00 -1°C° 0.1 mm 5 mps 735 mmHg 76%
    10:00 -1°C° 0.1 mm 5 mps 735 mmHg 74%
    11:00 0°C° 0.1 mm 5 mps 735 mmHg 73%
    12:00 +1°C° 0.1 mm 5 mps 735 mmHg 71%
    13:00 0°C° 0.1 mm 4 mps 735 mmHg 72%
    14:00 0°C° 0.1 mm 4 mps 735 mmHg 73%
    15:00 0°C° 0.1 mm 4 mps 735 mmHg 75%
    16:00 +1°C° 0.1 mm 3 mps 735 mmHg 79%
    17:00 +1°C° 0.1 mm 2 mps 735 mmHg 83%
    18:00 -1°C° 0.1 mm 2 mps 735 mmHg 87%
    19:00 -1°C° 0.1 mm 2 mps 735 mmHg 88%
    20:00 -1°C° 0.1 mm 2 mps 736 mmHg 88%
    21:00 +1°C° 0.1 mm 1 mps 736 mmHg 89%
    22:00 +1°C° 0 mm 1 mps 736 mmHg 89%
    23:00 +1°C° 0 mm 1 mps 735 mmHg 90%
    Show more